Wind_Speed
41 42 43 44 44 43 43 44 44 45 46 47 47 48 47 47 48 49 50 50 51 52 52 52 51 49 45 40 38 37 36 36 36 36 34 33 33 33 33 34 34 34 33
38 38 40 41 42 42 43 44 44 46 48 49 50 51 51 50 50 50 51 53 54 56 57 56 54 52 48 44 40 40 39 38 37 36 35 33 34 35 34 35 35 35 35
36 36 38 40 41 42 43 45 47 48 49 50 51 51 52 51 51 53 54 54 54 55 57 57 56 54 49 45 43 41 40 38 37 36 35 34 34 35 35 35 37 36 36
39 39 40 42 43 44 45 46 47 48 49 51 52 52 53 54 54 56 57 55 54 54 55 53 53 53 49 45 42 39 37 36 35 35 35 36 36 35 33 33 35 36 35
42 43 44 44 45 45 46 47 48 50 51 53 55 56 57 58 59 59 59 57 55 54 49 46 46 44 44 41 38 36 35 34 34 34 35 36 36 35 32 29 31 33 33
37 38 40 41 43 44 45 47 49 51 53 55 57 59 60 61 62 62 61 58 56 52 47 43 39 38 38 36 34 34 34 33 34 35 35 35 34 32 30 27 27 30 31
28 29 31 33 35 38 40 43 46 49 52 54 56 58 60 62 63 62 60 58 54 48 43 40 38 36 34 32 33 33 33 33 34 35 35 34 32 30 28 26 26 28 30
25 26 28 30 32 35 37 40 43 46 49 52 55 57 58 60 61 60 58 55 50 44 40 39 37 35 32 32 32 33 33 33 34 33 32 31 29 28 27 27 27 27 29
28 29 30 31 33 34 36 39 42 46 49 52 55 56 57 58 58 56 54 51 46 43 40 38 38 37 34 33 33 33 33 33 32 30 29 28 27 27 27 27 28 28 29
32 33 33 34 35 37 39 41 44 47 50 52 54 55 55 54 52 50 48 46 43 41 39 36 38 38 35 33 33 33 32 30 29 28 27 27 27 27 27 28 29 29 30
34 35 36 36 37 39 40 42 45 47 49 51 50 49 48 48 45 44 42 41 39 37 35 33 34 34 33 32 31 30 29 28 28 28 28 28 28 29 29 29 30 30 30
35 36 36 37 38 39 40 41 43 44 44 43 41 40 41 40 39 38 37 36 34 33 32 31 31 31 30 29 28 28 27 27 28 29 29 30 30 31 31 32 32 33 32
36 35 35 36 37 37 37 38 38 38 38 35 32 31 32 33 34 34 34 33 32 31 31 31 30 28 27 26 26 27 27 27 28 29 30 31 32 32 33 34 35 35 35
35 34 34 34 34 34 34 33 33 33 32 28 25 22 22 26 26 28 29 29 29 29 29 27 26 24 24 24 25 25 26 27 28 29 31 31 32 33 34 35 36 36 37
32 32 32 32 31 30 29 29 28 27 25 21 19 17 15 16 16 17 18 19 22 23 22 21 21 21 22 23 24 25 26 26 28 29 30 31 32 33 34 35 36 36 36
30 30 30 29 28 27 25 24 23 21 20 18 14 13 12 12 12 12 13 13 15 16 17 18 19 21 22 23 24 24 25 26 27 29 30 31 32 33 34 35 35 35 35
29 28 27 27 26 24 21 20 19 18 16 15 14 13 12 11 11 11 12 13 14 15 16 18 19 20 21 22 23 23 24 26 27 28 29 30 31 32 33 33 34 34 34
28 27 26 25 23 21 19 17 16 15 15 14 13 12 11 11 11 12 13 14 15 17 18 19 20 20 20 21 21 22 23 24 25 26 27 29 30 31 31 31 32 33 33
28 27 25 24 22 19 17 16 14 13 13 13 12 12 12 12 13 14 15 16 17 18 18 18 18 17 16 17 17 18 19 20 21 21 22 23 24 26 27 28 29 30 31
28 27 25 24 21 18 16 14 13 12 11 11 11 12 12 13 14 15 16 16 17 16 15 14 13 13 13 13 13 14 15 16 16 18 19 20 22 24 25 26 28 29 29
29 27 25 24 21 18 15 13 11 10 10 10 11 11 12 12 12 13 13 13 13 12 11 11 11 11 11 11 11 12 13 14 15 16 18 19 21 23 24 26 28 29 30
29 27 26 25 22 18 15 12 11 10 9 9 9 10 9 9 9 8 8 8 8 8 9 9 10 10 10 11 11 11 12 13 14 15 16 18 20 22 24 25 27 28 30
31 28 26 26 24 21 18 15 13 12 11 10 10 9 8 8 7 7 7 7 7 8 8 9 9 10 10 11 11 11 12 13 14 16 18 19 20 22 23 24 25 27 28
31 29 26 27 27 24 21 19 17 15 14 12 11 10 9 8 8 7 8 8 8 9 9 9 10 10 10 11 12 12 13 14 16 17 18 19 20 21 22 23 23 23 24
32 30 28 28 29 28 25 22 20 18 17 15 13 12 12 11 10 10 10 10 10 10 11 11 11 12 12 13 13 13 14 15 16 17 18 19 21 21 22 22 23 23 23
32 31 29 29 31 31 29 26 23 21 20 18 16 15 14 13 13 13 13 13 13 13 13 13 13 14 14 14 14 14 14 14 15 15 17 18 19 21 22 22 23 23 23
Wind_Direction
270 271 271 271 270 270 269 267 266 265 265 265 266 266 267 268 269 270 271 270 270 269 267 267 268 269 268 267 269 273 275 276 277 278 280 282 284 284 285 285 285 283 280
268 267 267 267 268 268 268 267 266 266 267 267 268 268 268 269 271 273 274 274 271 269 266 263 264 264 265 265 267 271 273 273 275 277 279 281 283 285 285 285 283 282 280
265 264 263 264 265 266 266 266 267 268 268 269 270 270 271 270 273 276 278 278 276 274 270 263 260 260 259 260 263 266 269 269 271 275 279 282 284 285 286 285 283 282 280
264 263 263 263 263 264 265 265 266 266 269 271 273 274 274 275 277 279 281 283 282 282 277 266 259 256 256 258 259 262 263 266 269 274 279 283 285 286 286 284 283 282 281
265 266 266 266 266 267 267 268 268 268 270 271 274 275 276 277 278 281 282 284 287 286 281 270 258 254 253 255 255 256 259 264 269 274 278 283 285 287 287 283 281 281 281
269 269 269 269 269 269 269 269 269 270 270 271 273 274 275 276 278 280 282 284 286 286 283 276 261 256 253 252 251 254 258 263 269 274 278 281 283 284 284 281 278 279 280
273 274 274 274 273 273 273 272 273 273 273 273 273 273 274 275 276 278 280 282 284 283 281 273 264 258 253 250 251 255 259 265 270 274 277 278 279 280 279 277 275 276 278
278 279 281 281 281 280 279 278 278 277 276 275 274 274 274 274 275 276 277 278 278 278 278 269 261 255 253 253 254 257 261 268 272 273 274 275 275 275 275 275 274 274 274
280 283 285 287 288 288 287 286 284 282 280 278 276 274 273 272 272 273 272 271 269 269 272 270 262 255 252 253 256 259 265 268 270 270 271 272 272 271 271 272 274 274 274
283 286 289 291 294 295 295 294 292 290 287 284 280 275 271 269 269 268 267 263 262 263 264 267 262 255 251 253 257 262 264 266 267 267 268 268 270 270 270 271 273 275 276
284 287 291 294 297 300 300 300 299 298 296 290 283 274 269 266 263 261 258 256 256 257 260 259 257 253 253 255 259 262 262 264 265 266 267 268 269 270 270 270 272 274 275
284 287 291 295 299 303 305 304 303 304 303 296 284 273 264 257 253 251 248 247 248 250 252 251 251 251 253 257 260 261 261 262 264 266 268 269 269 269 269 269 270 272 273
283 285 290 296 301 305 308 308 307 309 309 302 288 272 259 249 244 242 241 241 243 245 246 246 248 249 254 257 260 261 262 264 266 268 269 269 270 270 270 270 270 270 272
282 284 290 296 302 307 310 311 312 312 309 303 293 277 258 246 238 238 238 236 238 239 238 240 245 250 255 259 262 264 266 267 269 270 270 270 271 272 272 271 270 270 271
282 283 289 296 303 308 311 312 315 317 315 308 297 284 271 255 244 240 237 234 235 238 239 243 250 256 261 264 266 268 270 271 272 272 272 272 272 273 273 272 271 271 271
282 283 288 295 302 308 310 312 315 318 316 309 299 289 276 273 268 263 261 258 255 254 255 256 259 262 266 269 271 272 273 273 273 273 274 273 273 273 274 273 272 272 272
283 284 288 294 301 306 309 308 312 315 313 309 301 291 285 283 282 280 278 275 272 270 268 267 268 269 270 271 272 273 273 273 274 274 274 274 274 275 275 274 274 274 274
283 282 286 291 297 303 305 305 307 310 308 304 300 294 288 287 285 283 280 278 278 275 272 272 273 272 272 272 271 271 272 273 274 276 276 277 277 277 276 276 277 276 276
287 279 280 284 291 296 300 300 301 302 302 299 293 290 286 284 282 280 278 277 276 274 274 274 271 271 271 270 269 269 271 274 276 279 281 281 282 283 283 283 282 281 281
289 278 274 276 282 288 291 292 292 293 292 290 288 287 284 282 279 276 273 273 274 276 275 270 264 262 263 263 264 268 273 277 280 283 286 288 289 288 288 287 286 285 284
291 279 268 267 270 277 281 280 279 281 283 285 284 283 281 280 278 274 270 269 270 268 263 258 256 256 257 259 265 271 277 282 286 289 291 293 293 293 291 289 288 287 286
292 281 266 259 260 263 266 267 266 267 272 277 280 281 281 280 276 267 260 255 251 248 247 247 251 254 256 263 270 277 283 288 292 294 295 296 296 296 294 293 291 290 288
290 283 266 254 251 252 254 255 256 259 263 267 270 272 272 269 263 254 244 238 235 236 240 244 249 256 264 271 278 285 291 294 296 299 300 301 302 302 300 298 296 295 293
286 282 268 253 247 246 248 251 253 255 255 257 261 262 261 258 253 246 241 239 238 240 244 251 258 265 271 278 285 290 295 298 300 303 305 307 310 311 309 307 305 302 299
283 280 268 253 245 243 243 247 250 250 250 251 253 254 255 254 252 250 247 246 247 250 254 259 265 269 275 282 287 291 295 300 305 309 312 316 318 319 318 315 311 307 303
279 277 269 256 245 240 240 243 246 247 246 247 248 250 251 253 253 253 253 253 254 255 258 261 265 270 276 282 285 287 292 299 306 312 318 323 325 326 325 322 317 313 309
Height
5885 5885 5884 5883 5883 5883 5882 5882 5881 5880 5879 5878 5876 5875 5874 5872 5871 5869 5867 5865 5864 5862 5860 5859 5859 5859 5860 5860 5860 5860 5860 5859 5858 5857 5857 5857 5855 5853 5851 5849 5848 5847 5846
5876 5876 5875 5874 5874 5874 5873 5872 5872 5871 5870 5869 5867 5866 5865 5863 5861 5859 5857 5855 5852 5850 5848 5846 5847 5847 5848 5850 5851 5851 5851 5850 5849 5848 5848 5849 5848 5845 5843 5841 5839 5838 5837
5868 5867 5867 5866 5866 5865 5864 5864 5863 5862 5860 5859 5857 5855 5853 5851 5850 5848 5845 5842 5839 5836 5833 5832 5832 5833 5836 5839 5841 5842 5842 5841 5841 5839 5839 5839 5839 5837 5836 5832 5830 5828 5827
5860 5859 5858 5857 5856 5856 5855 5854 5853 5851 5850 5848 5845 5843 5841 5839 5837 5835 5833 5830 5826 5824 5820 5818 5819 5821 5825 5828 5830 5831 5832 5832 5832 5831 5830 5829 5828 5827 5827 5824 5821 5819 5818
5851 5850 5848 5848 5847 5846 5845 5844 5842 5841 5840 5837 5835 5831 5829 5826 5824 5823 5821 5817 5816 5814 5810 5807 5807 5810 5813 5817 5819 5822 5823 5823 5823 5823 5821 5820 5818 5817 5817 5816 5813 5810 5809
5841 5839 5838 5837 5836 5835 5833 5832 5831 5829 5827 5825 5822 5818 5816 5813 5811 5809 5807 5806 5804 5803 5802 5800 5799 5801 5804 5807 5809 5812 5813 5814 5814 5813 5812 5811 5810 5809 5808 5808 5806 5803 5801
5832 5830 5828 5827 5825 5823 5822 5820 5818 5816 5813 5811 5808 5805 5802 5799 5797 5795 5794 5793 5792 5792 5791 5791 5792 5793 5795 5797 5800 5803 5804 5805 5805 5804 5803 5802 5801 5800 5800 5799 5798 5796 5794
5824 5822 5820 5818 5816 5814 5811 5808 5805 5802 5799 5796 5793 5790 5787 5784 5783 5781 5781 5781 5781 5781 5782 5782 5783 5784 5786 5788 5791 5793 5795 5795 5795 5795 5794 5793 5792 5792 5791 5791 5790 5789 5787
5817 5815 5812 5809 5807 5804 5800 5797 5793 5789 5784 5780 5777 5774 5771 5769 5767 5767 5768 5769 5770 5772 5773 5773 5774 5775 5777 5779 5782 5784 5785 5786 5785 5785 5785 5785 5784 5784 5783 5783 5782 5782 5780
5808 5805 5802 5799 5796 5792 5788 5783 5778 5773 5768 5763 5759 5756 5754 5752 5752 5752 5754 5756 5758 5760 5762 5763 5765 5766 5768 5770 5773 5775 5775 5776 5776 5776 5777 5777 5776 5776 5775 5775 5774 5773 5772
5799 5796 5793 5789 5785 5780 5775 5769 5763 5757 5750 5744 5739 5737 5736 5736 5737 5738 5741 5743 5746 5749 5751 5753 5755 5757 5759 5762 5764 5765 5766 5767 5768 5768 5768 5768 5768 5768 5767 5767 5766 5765 5764
5790 5787 5783 5780 5775 5769 5763 5756 5750 5743 5735 5728 5723 5721 5721 5721 5723 5726 5729 5732 5736 5738 5741 5743 5746 5749 5751 5753 5755 5756 5758 5758 5759 5759 5759 5759 5759 5759 5759 5758 5758 5757 5756
5781 5777 5774 5770 5765 5759 5752 5746 5739 5732 5724 5718 5713 5710 5710 5710 5712 5716 5719 5723 5727 5729 5733 5736 5738 5741 5743 5745 5747 5748 5749 5750 5751 5750 5750 5750 5750 5750 5750 5749 5749 5748 5747
5770 5768 5765 5761 5756 5750 5743 5737 5730 5724 5717 5712 5708 5705 5704 5705 5707 5709 5712 5716 5719 5722 5725 5728 5731 5733 5736 5738 5739 5740 5741 5742 5742 5742 5742 5742 5741 5741 5741 5740 5740 5739 5738
5760 5758 5756 5752 5747 5742 5736 5730 5724 5718 5713 5709 5706 5704 5704 5704 5705 5706 5708 5711 5714 5717 5719 5722 5724 5727 5729 5730 5732 5733 5733 5734 5734 5734 5733 5733 5732 5732 5732 5731 5730 5730 5729
5751 5749 5747 5743 5739 5734 5729 5724 5719 5714 5710 5707 5705 5704 5704 5704 5704 5705 5706 5708 5711 5712 5714 5716 5719 5721 5722 5724 5725 5726 5726 5726 5726 5726 5725 5724 5724 5723 5723 5722 5721 5720 5719
5742 5740 5738 5735 5732 5728 5723 5719 5715 5711 5708 5705 5703 5702 5702 5702 5702 5702 5704 5705 5707 5709 5710 5712 5714 5715 5716 5717 5718 5719 5719 5718 5718 5718 5717 5716 5715 5715 5714 5713 5712 5711 5710
5734 5732 5730 5728 5725 5721 5718 5715 5711 5709 5706 5703 5702 5701 5700 5700 5700 5700 5701 5702 5703 5705 5706 5707 5709 5709 5710 5711 5711 5711 5711 5711 5711 5710 5709 5709 5708 5707 5706 5705 5704 5703 5701
5725 5724 5722 5720 5718 5715 5713 5710 5708 5705 5703 5702 5700 5699 5698 5698 5698 5698 5698 5699 5700 5701 5701 5702 5703 5703 5704 5704 5705 5705 5705 5705 5705 5704 5703 5702 5701 5700 5698 5697 5696 5694 5693
5717 5715 5714 5713 5712 5710 5707 5705 5704 5702 5701 5699 5698 5697 5696 5696 5696 5695 5695 5696 5696 5696 5696 5697 5698 5699 5699 5700 5700 5700 5700 5700 5700 5699 5698 5697 5695 5694 5692 5690 5688 5687 5685
5709 5707 5706 5705 5705 5704 5702 5701 5700 5699 5698 5697 5696 5695 5694 5693 5693 5692 5692 5692 5692 5692 5693 5694 5694 5695 5696 5696 5697 5697 5696 5696 5695 5694 5693 5692 5690 5688 5686 5683 5681 5679 5677
5701 5698 5697 5697 5698 5698 5697 5697 5696 5695 5695 5694 5693 5692 5691 5691 5690 5689 5689 5689 5689 5689 5690 5691 5692 5692 5693 5693 5693 5693 5693 5692 5691 5690 5689 5687 5684 5682 5679 5676 5674 5671 5668
5692 5690 5689 5689 5690 5691 5691 5692 5692 5691 5691 5690 5690 5689 5689 5688 5688 5687 5687 5687 5687 5687 5688 5688 5689 5689 5689 5689 5689 5689 5688 5688 5687 5685 5683 5681 5679 5676 5673 5670 5666 5663 5660
5682 5681 5680 5681 5682 5683 5685 5685 5686 5686 5686 5686 5686 5686 5686 5685 5685 5685 5684 5684 5685 5685 5685 5685 5686 5686 5686 5685 5685 5685 5684 5683 5682 5680 5678 5675 5672 5669 5666 5663 5660 5656 5653
5672 5671 5670 5671 5673 5675 5677 5678 5679 5680 5680 5681 5681 5681 5681 5681 5681 5681 5681 5682 5682 5682 5682 5682 5682 5682 5682 5682 5681 5681 5680 5678 5677 5674 5672 5670 5667 5664 5660 5657 5653 5650 5647
5661 5661 5660 5661 5663 5665 5668 5670 5671 5673 5674 5675 5675 5676 5676 5677 5677 5677 5677 5677 5678 5678 5678 5678 5678 5677 5677 5677 5677 5676 5675 5674 5672 5670 5668 5665 5662 5658 5655 5651 5648 5644 5641